Location: Unspecified
(0.0000°N, 0.0000°E)
Time: 22:14:43
(UTC+01:00)

HO-68 - Visible Passes

Search period start: 11 February 2016 00:00
Search period end: 21 February 2016 00:00
Orbit: 1193 x 1204 km, 100.2° (Epoch: 11 February)

Date Brightness Start Highest point End Pass type
(mag) Time Alt. Az. Time Alt. Az. Time Alt. Az.
11 Feb ? 20:25:07 10° SE 20:31:46 42° ENE 20:38:24 10° N visible
11 Feb ? 22:14:03 10° SSW 22:19:08 21° WSW 22:24:15 10° WNW visible
12 Feb ? 20:08:54 10° SE 20:14:56 29° ENE 20:20:54 10° NNE visible
12 Feb ? 21:56:14 10° SSW 22:02:19 30° WSW 22:08:24 10° NW visible
13 Feb ? 19:53:06 10° ESE 19:58:06 20° ENE 20:03:03 10° NNE visible
13 Feb ? 21:38:46 10° S 21:45:27 43° WSW 21:52:09 10° NW visible
14 Feb ? 19:38:06 10° ESE 19:41:16 13° ENE 19:44:24 10° NE visible
14 Feb ? 21:21:33 10° S 21:28:36 62° WSW 21:35:39 10° NNW visible
15 Feb ? 21:04:33 10° SSE 21:11:45 86° WSW 21:18:55 10° NNW visible
16 Feb ? 20:47:46 10° SSE 20:54:53 69° ENE 21:02:00 10° N visible
16 Feb ? 22:40:02 10° WSW 22:42:12 11° WSW 22:44:23 10° W visible
17 Feb ? 20:31:11 10° SSE 20:38:02 48° ENE 20:44:51 10° N visible
17 Feb ? 22:20:52 10° SW 22:25:23 18° WSW 22:29:56 10° WNW visible
18 Feb ? 20:14:52 10° SE 20:21:11 34° ENE 20:27:28 10° NNE visible
18 Feb ? 22:02:50 10° SSW 22:08:34 26° WSW 22:14:18 10° NW visible
19 Feb ? 19:58:52 10° SE 20:04:20 24° ENE 20:09:47 10° NNE visible
19 Feb ? 21:45:14 10° S 21:51:43 38° WSW 21:58:13 10° NW visible
20 Feb ? 19:43:27 10° ESE 19:47:31 16° ENE 19:51:34 10° NE visible
20 Feb ? 21:27:56 10° S 21:34:52 54° WSW 21:41:49 10° NNW visible
